Powrót do katalogu

STARLINK-34500

AktywnyŁącznośćVLEO
NORAD 64613·PAYLOAD·🇺🇸 United States

Wystrzelony Jun 25, 2025 z Cape Canaveral Space Force Station

Loading…

Następne Przeloty (najbliższe 24 godziny)

TLE

ŚwieżeSource: CelesTrak SupGP

Epoka: Sep 14, 2026, 20:57 UTC

1 64613C 25137V   26257.87340278 -.00012547  00000+0 -37057-3 0  2571
2 64613  53.1576 173.7498 0001296  99.1519  74.8229 15.34409245    10

Śledź STARLINK-34500 w czasie rzeczywistym z AllMySat

Download on the App Store